Pine Ridge, SD

12:04 PM MDT on May 22, 2017 (GMT -0600)
Pine Ridge

Weather History for KIEN - July, 2013

Change the Weather History Date:

Monday, July 8, 2013

  Actual Average Record
Temperature  
Mean Temperature 76 °F 73 °F  
Max Temperature 89 °F 88 °F 99 °F (2002)
Min Temperature 63 °F 57 °F 45 °F (2010)
Degree Days  
Heating Degree Days 0 0  
Month to date heating degree days 0 4  
Since 1 June heating degree days 78 91  
Since 1 July heating degree days 0 4  
Cooling Degree Days 11 8  
Month to date cooling degree days 75 59  
Year to date cooling degree days 175 186  
Since 1 June cooling degree days 158 169  
Growing Degree Days 26 (Base 50)    
Moisture  
Dew Point 62 °F    
Average Humidity 65    
Maximum Humidity 87    
Minimum Humidity 43    
Precipitation  
Precipitation 0.33 in 0.08 in 0.68 in (2016)
Month to date precipitation 0.56 0.67  
Year to date precipitation 10.43 10.34  
Sea Level Pressure  
Sea Level Pressure 29.93 in    
Wind  
Wind Speed 9 mph (ESE)    
Max Wind Speed 37 mph    
Max Gust Speed 45 mph    
Visibility 9 miles    
Events Rain    
T = Trace of Precipitation, MM = Missing Value Source: NWS Daily Summary

Daily Weather History Graph

Daily Weather History Graph

Search for Another Location

Airport or City:

Trip Planner

Search our weather history database for the weather conditions in past years. The results will help you decide how hot, cold, wet, or windy it might be!

Date:

Astronomy

Jul. 08, 2013 Rise Set
Actual Time 5:19 AM MDT 8:30 PM MDT
Civil Twilight 4:44 AM MDT 9:05 PM MDT
Nautical Twilight 3:59 AM MDT 9:50 PM MDT
Astronomical Twilight 3:05 AM MDT 10:43 PM MDT
Moon 5:52 AM MDT (7/8) 8:31 PM MDT (7/8)
Length of Visible Light 16h 21m
Length of Day
15h 11m
New Moon, 0% of the Moon is Illuminated
Jul 8
New Moon
Jul 15
First Quarter
Jul 22
Full
Jul 29
Last Quarter
Aug 6
New

Hourly Weather History & Observations

Time (MDT) Temp. Heat Index Dew Point Humidity Pressure Visibility Wind Dir Wind Speed Gust Speed Precip Events Conditions
12:52 AM 68.0 °F - 63.0 °F 84% 29.94 in 10.0 mi SE 6.9 mph - N/A   Clear
1:52 AM 66.9 °F - 62.1 °F 84% 29.95 in 10.0 mi ENE 3.5 mph - N/A   Clear
2:52 AM 66.9 °F - 63.0 °F 87% 29.96 in 10.0 mi ENE 10.4 mph - N/A   Partly Cloudy
3:52 AM 66.9 °F - 63.0 °F 87% 29.94 in 10.0 mi East 6.9 mph - N/A   Overcast
4:48 AM 64.4 °F - 62.6 °F 94% 30.08 in 1.5 mi North 17.3 mph 25.3 mph 0.23 in Rain Heavy Rain
4:52 AM 66.0 °F - 63.0 °F 90% 29.99 in 1.5 mi NNW 15.0 mph 25.3 mph 0.26 in Rain Heavy Rain
4:58 AM 64.4 °F - 62.6 °F 94% 30.09 in 4.0 mi North 13.8 mph 23.0 mph 0.00 in Rain Light Rain
5:52 AM 64.0 °F - 61.0 °F 90% 29.98 in 10.0 mi ENE 8.1 mph 20.7 mph 0.01 in   Partly Cloudy
6:52 AM 64.0 °F - 61.0 °F 90% 29.94 in 10.0 mi East 8.1 mph - N/A   Mostly Cloudy
7:52 AM 66.9 °F - 63.0 °F 87% 29.93 in 10.0 mi NNW 3.5 mph - N/A   Partly Cloudy
8:52 AM 68.0 °F - 63.0 °F 84% 29.99 in 10.0 mi WNW 6.9 mph 17.3 mph N/A   Overcast
9:52 AM 66.0 °F - 62.1 °F 87% 29.98 in 4.0 mi NE 6.9 mph - 0.04 in Rain Rain
10:52 AM 72.0 °F - 63.0 °F 73% 29.94 in 10.0 mi ESE 8.1 mph - 0.01 in   Clear
11:52 AM 82.0 °F 82.7 °F 61.0 °F 49% 29.93 in 10.0 mi SE 5.8 mph - N/A   Clear
12:52 PM 84.9 °F 86.6 °F 64.9 °F 51% 29.92 in 10.0 mi SE 10.4 mph - N/A   Clear
1:52 PM 87.1 °F 88.9 °F 64.9 °F 48% 29.90 in 10.0 mi SE 12.7 mph 23.0 mph N/A   Scattered Clouds
2:52 PM 88.0 °F 88.7 °F 63.0 °F 43% 29.89 in 10.0 mi SSE 12.7 mph 19.6 mph N/A   Clear
3:52 PM 87.1 °F 87.8 °F 63.0 °F 44% 29.88 in 10.0 mi Variable 6.9 mph - N/A   Partly Cloudy
4:52 PM 88.0 °F 89.3 °F 64.0 °F 45% 29.85 in 10.0 mi South 6.9 mph - N/A   Partly Cloudy
5:52 PM 87.1 °F 88.3 °F 64.0 °F 46% 29.82 in 10.0 mi SE 10.4 mph - N/A   Clear
6:52 PM 84.0 °F 85.4 °F 64.0 °F 51% 29.85 in 10.0 mi South 6.9 mph - N/A   Clear
7:52 PM 71.1 °F - 57.9 °F 63% 29.89 in 8.0 mi SW 29.9 mph 42.6 mph 0.00 in Rain Light Rain
8:52 PM 75.0 °F - 55.0 °F 50% 29.90 in 10.0 mi WNW 11.5 mph 24.2 mph 0.01 in   Clear
9:52 PM 68.0 °F - 57.9 °F 70% 29.90 in 10.0 mi Calm Calm - N/A   Clear
10:52 PM 70.0 °F - 57.9 °F 65% 29.91 in 10.0 mi SE 5.8 mph - N/A   Clear
11:52 PM 66.0 °F - 59.0 °F 78% 29.89 in 10.0 mi West 3.5 mph - N/A   Clear